DW8209 Gubbio IT current weather conditions

sailwx.info

Wind from 079 at 0 knots gusting 4

Air temperature 27.2° C
Dewpoint 12.0° C

Last reported at 2017-Aug-23 18:03 UTC.
Time now 2017-Aug-23 19:37 UTC

Location: N 43°19' E 012°34'.
View on Google Maps.

See reports from other nearby stations

  
Tides and Currents Weather Stations Pressure Air Temp Water Temp Dewpoint Dewpoint Depression Visibility Wind Speed Wind Dir Waves Ship Positions
date/time (UTC)wind fromknots sea level pressurealtimeterstation pressurevisibilityair tempwater tempwave heightnotes
2017-Aug-23 18:03 079 0 gusting 4 27.2
2017-Aug-23 17:48 079 2 gusting 4 27.8
2017-Aug-23 17:33 218 1 gusting 5 28.9
2017-Aug-23 17:18 221 1 gusting 3 30.0
2017-Aug-23 17:03 245 1 gusting 5 30.0
2017-Aug-23 16:48 124 1 gusting 4 30.6
2017-Aug-23 16:33 230 6 gusting 8 30.6
2017-Aug-23 16:18 205 0 gusting 6 31.1
2017-Aug-23 16:03 124 30.6
2017-Aug-23 15:48 256 0 gusting 6 30.6
2017-Aug-23 15:33 160 2 gusting 5 31.1
2017-Aug-23 15:18 148 0 gusting 3 31.7
2017-Aug-23 15:02 113 0 gusting 5 31.1
2017-Aug-23 14:47 136 0 gusting 2 30.6
2017-Aug-23 14:33 096 2 gusting 3 30.0
2017-Aug-23 14:17 276 30.6
2017-Aug-23 14:03 226 3 gusting 7 30.0
2017-Aug-23 13:47 307 2 gusting 6 30.0
2017-Aug-23 13:32 221 3 gusting 7 30.0
2017-Aug-23 13:18 323 0 gusting 5 30.0
2017-Aug-23 13:02 353 0 gusting 5 30.0
2017-Aug-23 12:47 153 1 gusting 5 28.9
2017-Aug-23 12:39 056 2 gusting 6 28.9
2017-Aug-23 09:32 057 1 gusting 4 25.6
2017-Aug-23 09:18 105 1 gusting 4 25.0
2017-Aug-23 08:48 071 1 gusting 3 23.3
2017-Aug-23 08:31 123 22.8
2017-Aug-23 08:16 048 1 gusting 3 21.7
2017-Aug-23 08:07 058 0 gusting 4 21.7
2017-Aug-23 07:46 108 21.1
2017-Aug-23 07:31 031 20.0
2017-Aug-23 07:16 103 18.9
2017-Aug-23 07:01 049 17.8
2017-Aug-23 06:47 048 17.2
2017-Aug-23 06:31 272 15.6
2017-Aug-23 06:16 269 13.9
2017-Aug-23 06:01 297 13.3
2017-Aug-23 05:46 297 11.7
2017-Aug-23 05:31 298 11.1
2017-Aug-23 05:16 299 10.6
2017-Aug-23 05:00 267 9.4
2017-Aug-23 04:46 263 8.9
2017-Aug-23 04:30 249 8.9
2017-Aug-23 04:15 249 8.9
2017-Aug-23 04:00 249 8.9
2017-Aug-23 03:45 249 8.9
2017-Aug-23 03:30 316 9.4
2017-Aug-23 03:16 316 9.4
2017-Aug-23 03:00 316 10.0
2017-Aug-23 02:45 340 10.0
2017-Aug-23 02:30 340 10.6
2017-Aug-23 02:26 342 10.6
2017-Aug-23 01:00 277 0 gusting 1 11.1
2017-Aug-23 00:45 277 11.1
2017-Aug-23 00:30 238 11.1
2017-Aug-23 00:15 238 11.1
2017-Aug-23 00:00 238 11.7
2017-Aug-22 23:45 228 11.7
2017-Aug-22 23:34 228 11.7
2017-Aug-22 23:00 005 12.8
2017-Aug-22 22:45 284 12.8
2017-Aug-22 22:30 280 13.3
2017-Aug-22 22:15 284 0 gusting 1 13.3
2017-Aug-22 22:00 278 13.3
2017-Aug-22 21:44 277 13.9
2017-Aug-22 21:29 278 0 gusting 1 13.9
2017-Aug-22 21:14 099 14.4
2017-Aug-22 20:59 096 14.4
2017-Aug-22 20:44 190 14.4
2017-Aug-22 20:29 273 15.0
2017-Aug-22 20:15 226 0 gusting 0 15.6
2017-Aug-22 19:59 297 0 gusting 2 16.1
2017-Aug-22 19:44 343 0 gusting 2 16.7
2017-Aug-22 19:29 260 17.2
2017-Aug-22 19:14 259 0 gusting 1 18.3
2017-Aug-22 18:59 195 19.4
2017-Aug-22 18:44 052 0 gusting 4 20.0
2017-Aug-22 18:29 050 2 gusting 4 20.6
2017-Aug-22 18:14 087 2 gusting 6 20.6
2017-Aug-22 17:59 108 3 gusting 5 21.1
2017-Aug-22 17:44 088 4 gusting 6 21.7
2017-Aug-22 17:29 111 3 gusting 6 22.2
2017-Aug-22 17:14 074 4 gusting 8 22.8
2017-Aug-22 16:59 098 6 gusting 7 22.8
2017-Aug-22 16:44 061 5 gusting 9 23.3
2017-Aug-22 16:29 044 2 gusting 6 23.9
2017-Aug-22 16:14 344 3 gusting 11 23.9
2017-Aug-22 15:59 062 5 gusting 9 23.9
2017-Aug-22 15:44 085 6 gusting 9 23.9
2017-Aug-22 15:29 084 6 gusting 9 23.9
2017-Aug-22 15:14 098 6 gusting 9 24.4
2017-Aug-22 14:59 066 8 gusting 13 24.4
2017-Aug-22 14:44 061 6 gusting 9 24.4
2017-Aug-22 14:14 063 7 gusting 13 25.0
2017-Aug-22 13:59 101 7 gusting 10 24.4
2017-Aug-22 13:44 094 7 gusting 13 24.4
2017-Aug-22 13:29 093 7 gusting 12 24.4
2017-Aug-22 13:14 076 7 gusting 13 24.4
2017-Aug-22 12:59 058 6 gusting 11 24.4
2017-Aug-22 12:44 060 8 gusting 12 24.4
2017-Aug-22 12:29 132 7 gusting 12 23.9
2017-Aug-22 12:14 078 6 gusting 10 24.4
2017-Aug-22 11:59 070 3 gusting 9 23.9
2017-Aug-22 11:44 059 6 gusting 12 23.9
2017-Aug-22 11:29 054 6 gusting 10 23.9
2017-Aug-22 11:14 074 7 gusting 11 23.9
2017-Aug-22 10:59 062 6 gusting 10 23.3
2017-Aug-22 10:44 042 6 gusting 10 23.3
2017-Aug-22 10:29 054 6 gusting 13 23.3
2017-Aug-22 10:14 074 10 gusting 14 23.3
2017-Aug-22 09:59 101 8 gusting 12 23.3
2017-Aug-22 09:44 039 4 gusting 9 22.8
2017-Aug-22 08:58 034 6 gusting 13 22.2
2017-Aug-22 08:43 037 5 gusting 13 22.2
2017-Aug-22 08:32 064 6 gusting 13 22.2
2017-Aug-22 07:12 087 6 gusting 10 20.6
2017-Aug-22 06:57 086 6 gusting 11 20.6
2017-Aug-22 06:42 091 6 gusting 11 20.0
2017-Aug-22 06:27 065 6 gusting 11 20.0
2017-Aug-22 06:12 144 4 gusting 6 19.4
2017-Aug-22 05:57 079 3 gusting 6 19.4
2017-Aug-22 05:42 062 4 gusting 6 18.9
2017-Aug-22 05:27 083 3 gusting 6 18.3
2017-Aug-22 05:12 062 2 gusting 5 18.3
2017-Aug-22 04:57 032 3 gusting 4 17.2
2017-Aug-22 04:42 045 15.6
2017-Aug-22 04:27 308 0 gusting 2 16.1
2017-Aug-22 04:12 315 1 gusting 4 16.7
2017-Aug-22 03:57 027 1 gusting 3 17.8
2017-Aug-22 03:42 026 2 gusting 5 17.8
2017-Aug-22 03:32 033 3 gusting 10 18.3
2017-Aug-22 03:17 041 2 gusting 6 18.3
2017-Aug-22 02:57 035 4 gusting 6 18.3
2017-Aug-22 02:41 056 3 gusting 4 18.3
2017-Aug-22 02:27 039 4 gusting 8 18.3
2017-Aug-22 02:11 043 6 gusting 9 18.9
2017-Aug-22 01:56 064 3 gusting 6 18.9
2017-Aug-22 01:41 048 4 gusting 10 18.9
2017-Aug-22 01:26 059 5 gusting 8 18.9
2017-Aug-22 01:11 056 6 gusting 11 18.9
2017-Aug-22 00:56 048 5 gusting 9 18.9
2017-Aug-22 00:41 015 4 gusting 10 18.9
2017-Aug-22 00:26 061 6 gusting 9 18.9
2017-Aug-22 00:11 047 5 gusting 9 18.9
2017-Aug-21 23:56 044 4 gusting 7 18.9
2017-Aug-21 23:41 070 6 gusting 12 19.4
2017-Aug-21 23:26 026 5 gusting 11 19.4
2017-Aug-21 23:14 040 6 gusting 8 19.4
2017-Aug-21 21:44 018 6 gusting 9 19.4